PGT2DK LTCO-LTBJ

Flight info

Callsign PGT2DK
Flight time 2h 17m
Altitude 38000
Route INBAT UL851 ERZ UA4 SIV UT54 ROLVI DCT TUMER UT54 KULAR
Aircraft A20N/M-SDE2E3FGHIRWXY/LB1

Departure

Time 2026-05-07 19:26
Airport Ağrı Airport (LTCO)

Arrival

Time 2026-05-07 21:44
Airport Adnan Menderes International Airport (LTBJ)
Time Latitude Longitude Altitude Speed Heading
2026-05-07 19:07 39.65448 43.02218 5402 ft 0 kts 254°
2026-05-07 19:16 39.65452 43.02235 5414 ft 2 kts 256°
2026-05-07 19:16 39.65455 43.02256 5403 ft 2 kts 261°
2026-05-07 19:16 39.65456 43.02277 5408 ft 2 kts 277°
2026-05-07 19:17 39.65448 43.02295 5406 ft 2 kts 335°
2026-05-07 19:17 39.65440 43.02299 5402 ft 0 kts 345°
2026-05-07 19:22 39.65455 43.02293 5406 ft 5 kts 345°
2026-05-07 19:22 39.65504 43.02299 5410 ft 10 kts 52°
2026-05-07 19:22 39.65533 43.02414 5409 ft 16 kts 76°
2026-05-07 19:23 39.65556 43.02552 5405 ft 12 kts 94°
2026-05-07 19:23 39.65481 43.02614 5401 ft 15 kts 165°
2026-05-07 19:23 39.65365 43.02656 5401 ft 19 kts 164°
2026-05-07 19:23 39.65235 43.02703 5403 ft 20 kts 164°
2026-05-07 19:24 39.65092 43.02754 5405 ft 23 kts 164°
2026-05-07 19:24 39.64934 43.02811 5406 ft 24 kts 165°
2026-05-07 19:24 39.64771 43.02870 5400 ft 24 kts 164°
2026-05-07 19:24 39.64645 43.02900 5406 ft 13 kts 195°
2026-05-07 19:25 39.64560 43.02888 5404 ft 11 kts 137°
2026-05-07 19:25 39.64567 43.02937 5412 ft 6 kts 20°
2026-05-07 19:25 39.64691 43.02900 5405 ft 35 kts 344°
2026-05-07 19:25 39.65133 43.02741 5409 ft 96 kts 345°
2026-05-07 19:26 39.65986 43.02432 5397 ft 156 kts 344°
2026-05-07 19:26 39.67125 43.02008 5740 ft 168 kts 343°
2026-05-07 19:26 39.68198 43.01624 6649 ft 152 kts 345°
2026-05-07 19:26 39.69242 43.01305 7102 ft 164 kts 348°
2026-05-07 19:27 39.70446 43.01022 7325 ft 188 kts 350°
2026-05-07 19:27 39.71816 43.00757 7561 ft 210 kts 350°
2026-05-07 19:27 39.73313 43.00425 7878 ft 223 kts 349°
2026-05-07 19:27 39.74884 43.00014 8383 ft 236 kts 347°
2026-05-07 19:28 39.76490 42.99563 9185 ft 236 kts 347°
2026-05-07 19:28 39.78098 42.99112 10007 ft 236 kts 347°
2026-05-07 19:28 39.79724 42.98710 10706 ft 240 kts 349°
2026-05-07 19:28 39.81377 42.98334 11437 ft 241 kts 348°
2026-05-07 19:29 39.83025 42.97922 12213 ft 242 kts 347°
2026-05-07 19:29 39.84712 42.97593 12842 ft 249 kts 359°
2026-05-07 19:29 39.86398 42.98125 13497 ft 255 kts 30°
2026-05-07 19:29 39.87711 42.99668 14173 ft 258 kts 57°
2026-05-07 19:30 39.88253 43.01884 14703 ft 263 kts 91°
2026-05-07 19:30 39.87797 43.04169 15273 ft 263 kts 122°
2026-05-07 19:30 39.86499 43.05841 15870 ft 262 kts 154°
2026-05-07 19:30 39.84737 43.06415 16334 ft 266 kts 182°
2026-05-07 19:31 39.82883 43.06172 16895 ft 270 kts 190°
2026-05-07 19:31 39.81014 43.05794 17555 ft 271 kts 190°
2026-05-07 19:31 39.79156 43.05427 18276 ft 271 kts 190°
2026-05-07 19:31 39.77295 43.05068 18886 ft 272 kts 189°
2026-05-07 19:32 39.76027 43.04826 19298 ft 272 kts 190°
2026-05-07 19:32 39.74167 43.04371 19913 ft 273 kts 196°
2026-05-07 19:32 39.72320 43.03527 20258 ft 284 kts 207°
2026-05-07 19:32 39.70589 43.02173 20539 ft 297 kts 219°
2026-05-07 19:33 39.69057 43.00293 20816 ft 311 kts 231°
2026-05-07 19:33 39.67831 42.97923 21100 ft 324 kts 243°
2026-05-07 19:33 39.67021 42.95136 21390 ft 337 kts 256°
2026-05-07 19:33 39.66734 42.91978 21686 ft 351 kts 270°
2026-05-07 19:34 39.67033 42.88737 21997 ft 364 kts 280°
2026-05-07 19:34 39.67604 42.85442 22457 ft 372 kts 283°
2026-05-07 19:34 39.68211 42.82147 22987 ft 377 kts 283°
2026-05-07 19:34 39.68818 42.78825 23568 ft 380 kts 283°
2026-05-07 19:35 39.69423 42.75466 24120 ft 383 kts 282°
2026-05-07 19:35 39.70026 42.72086 24616 ft 385 kts 282°
2026-05-07 19:35 39.70636 42.68650 25118 ft 387 kts 282°
2026-05-07 19:35 39.71243 42.65228 25591 ft 389 kts 282°
2026-05-07 19:36 39.71852 42.61783 26067 ft 392 kts 281°
2026-05-07 19:36 39.72462 42.58328 26537 ft 394 kts 281°
2026-05-07 19:36 39.73073 42.54846 26984 ft 396 kts 281°
2026-05-07 19:36 39.73685 42.51344 27442 ft 399 kts 282°
2026-05-07 19:37 39.74300 42.47817 27890 ft 401 kts 282°
2026-05-07 19:37 39.74916 42.44275 28340 ft 403 kts 281°
2026-05-07 19:37 39.75535 42.40713 28777 ft 406 kts 281°
2026-05-07 19:37 39.76158 42.37120 29201 ft 408 kts 281°
2026-05-07 19:38 39.76784 42.33505 29618 ft 410 kts 281°
2026-05-07 19:38 39.77409 42.29890 30032 ft 412 kts 281°
2026-05-07 19:38 39.78037 42.26247 30401 ft 415 kts 281°
2026-05-07 19:38 39.78684 42.22485 30715 ft 418 kts 281°
2026-05-07 19:39 39.79321 42.18776 31012 ft 420 kts 281°
2026-05-07 19:39 39.79940 42.15158 31282 ft 423 kts 281°
2026-05-07 19:39 39.80611 42.11235 31587 ft 426 kts 281°
2026-05-07 19:39 39.81253 42.07474 31967 ft 426 kts 281°
2026-05-07 19:40 39.81903 42.03666 32374 ft 426 kts 281°
2026-05-07 19:40 39.82544 41.99896 32767 ft 426 kts 281°
2026-05-07 19:40 39.83183 41.96128 33109 ft 426 kts 280°
2026-05-07 19:40 39.83821 41.92357 33439 ft 426 kts 280°
2026-05-07 19:41 39.84457 41.88590 33785 ft 427 kts 280°
2026-05-07 19:41 39.85093 41.84815 34076 ft 428 kts 281°
2026-05-07 19:41 39.85731 41.81019 34285 ft 430 kts 281°
2026-05-07 19:41 39.86371 41.77208 34545 ft 430 kts 281°
2026-05-07 19:42 39.87007 41.73409 34833 ft 429 kts 281°
2026-05-07 19:42 39.87640 41.69620 35128 ft 428 kts 281°
2026-05-07 19:42 39.88271 41.65830 35388 ft 428 kts 281°
2026-05-07 19:42 39.88898 41.62049 35627 ft 427 kts 281°
2026-05-07 19:43 39.89525 41.58263 35844 ft 427 kts 281°
2026-05-07 19:43 39.90151 41.54480 36066 ft 427 kts 281°
2026-05-07 19:43 39.90773 41.50707 36282 ft 427 kts 281°
2026-05-07 19:43 39.91396 41.46921 36497 ft 427 kts 280°
2026-05-07 19:44 39.92017 41.43139 36706 ft 427 kts 280°
2026-05-07 19:44 39.92636 41.39361 36916 ft 427 kts 280°
2026-05-07 19:44 39.93254 41.35584 37114 ft 426 kts 280°
2026-05-07 19:44 39.93870 41.31806 37321 ft 426 kts 280°
2026-05-07 19:45 39.94485 41.28032 37528 ft 426 kts 280°
2026-05-07 19:45 39.95099 41.24256 37745 ft 426 kts 280°
2026-05-07 19:45 39.95516 41.20490 37915 ft 424 kts 272°
2026-05-07 19:45 39.95649 41.16654 38082 ft 424 kts 270°
2026-05-07 19:46 39.95710 41.12810 38225 ft 425 kts 270°
2026-05-07 19:46 39.95726 41.08963 38239 ft 425 kts 269°
2026-05-07 19:46 39.95707 41.01255 38235 ft 425 kts 269°
2026-05-07 19:47 39.95680 40.93561 38227 ft 424 kts 269°
2026-05-07 19:47 39.95662 40.85865 38223 ft 424 kts 269°
2026-05-07 19:48 39.95646 40.78161 38215 ft 425 kts 269°
2026-05-07 19:48 39.95627 40.70458 38207 ft 425 kts 269°
2026-05-07 19:49 39.95602 40.62752 38206 ft 425 kts 269°
2026-05-07 19:49 39.95574 40.55035 38202 ft 425 kts 269°
2026-05-07 19:50 39.95540 40.47330 38208 ft 425 kts 269°
2026-05-07 19:50 39.95501 40.39623 38208 ft 425 kts 269°
2026-05-07 19:51 39.95456 40.31897 38207 ft 427 kts 269°
2026-05-07 19:51 39.95406 40.24155 38201 ft 427 kts 269°
2026-05-07 19:52 39.95361 40.17665 38207 ft 428 kts 269°
2026-05-07 19:52 39.95302 40.09916 38205 ft 427 kts 269°
2026-05-07 19:53 39.95237 40.02167 38208 ft 427 kts 269°
2026-05-07 19:53 39.95168 39.94429 38211 ft 427 kts 269°
2026-05-07 19:54 39.95092 39.86677 38210 ft 428 kts 269°
2026-05-07 19:54 39.95008 39.78911 38210 ft 428 kts 269°
2026-05-07 19:55 39.94924 39.71619 38214 ft 429 kts 269°
2026-05-07 19:55 39.94824 39.63324 38212 ft 429 kts 269°
2026-05-07 19:56 39.94725 39.55579 38212 ft 428 kts 269°
2026-05-07 19:56 39.94623 39.47814 38210 ft 428 kts 269°
2026-05-07 19:57 39.94517 39.40057 38209 ft 428 kts 269°
2026-05-07 19:57 39.94405 39.32306 38204 ft 428 kts 269°
2026-05-07 19:58 39.94289 39.24552 38206 ft 428 kts 269°
2026-05-07 19:58 39.94167 39.16803 38206 ft 428 kts 269°
2026-05-07 19:59 39.94041 39.09056 38199 ft 428 kts 270°
2026-05-07 19:59 39.93920 39.01309 38205 ft 427 kts 270°
2026-05-07 20:00 39.93798 38.93574 38204 ft 426 kts 270°
2026-05-07 20:00 39.93589 38.85840 38206 ft 427 kts 267°
2026-05-07 20:01 39.93096 38.78132 38200 ft 427 kts 265°
2026-05-07 20:01 39.92528 38.70365 38200 ft 427 kts 265°
2026-05-07 20:02 39.91981 38.62662 38180 ft 427 kts 266°
2026-05-07 20:02 39.91445 38.54900 38192 ft 427 kts 266°
2026-05-07 20:03 39.90916 38.47202 38194 ft 426 kts 266°
2026-05-07 20:03 39.90381 38.39506 38192 ft 426 kts 266°
2026-05-07 20:04 39.89845 38.31862 38200 ft 426 kts 266°
2026-05-07 20:04 39.89297 38.24145 38194 ft 426 kts 266°
2026-05-07 20:05 39.88745 38.16456 38196 ft 426 kts 266°
2026-05-07 20:05 39.88185 38.08706 38195 ft 427 kts 266°
2026-05-07 20:06 39.87623 38.01012 38195 ft 427 kts 266°
2026-05-07 20:06 39.87058 37.93309 38193 ft 427 kts 266°
2026-05-07 20:07 39.86496 37.85633 38189 ft 427 kts 266°
2026-05-07 20:07 39.85927 37.77930 38195 ft 427 kts 266°
2026-05-07 20:08 39.85349 37.70191 38202 ft 427 kts 266°
2026-05-07 20:08 39.84771 37.62512 38206 ft 426 kts 266°
2026-05-07 20:09 39.84187 37.54824 38205 ft 426 kts 266°
2026-05-07 20:10 39.83301 37.43303 38205 ft 427 kts 266°
2026-05-07 20:10 39.82695 37.35570 38199 ft 426 kts 266°
2026-05-07 20:11 39.82084 37.27886 38224 ft 426 kts 266°
2026-05-07 20:11 39.81469 37.20216 38240 ft 425 kts 266°
2026-05-07 20:12 39.80853 37.12575 38252 ft 425 kts 266°
2026-05-07 20:12 39.80234 37.04967 38252 ft 425 kts 266°
2026-05-07 20:13 39.79601 36.97252 38266 ft 426 kts 266°
2026-05-07 20:13 39.79031 36.89595 38257 ft 424 kts 270°
2026-05-07 20:14 39.78887 36.81897 38263 ft 423 kts 271°
2026-05-07 20:14 39.78826 36.74293 38258 ft 423 kts 272°
2026-05-07 20:15 39.78777 36.66564 38249 ft 423 kts 272°
2026-05-07 20:15 39.78729 36.60156 38242 ft 423 kts 272°
2026-05-07 20:16 39.78662 36.52499 38216 ft 423 kts 272°
2026-05-07 20:16 39.78587 36.44793 38216 ft 423 kts 271°
2026-05-07 20:17 39.78508 36.37130 38212 ft 424 kts 272°
2026-05-07 20:17 39.78423 36.29487 38211 ft 423 kts 272°
2026-05-07 20:18 39.78241 36.21841 38211 ft 423 kts 268°
2026-05-07 20:18 39.77687 36.14209 38212 ft 424 kts 266°
2026-05-07 20:19 39.77037 36.06597 38215 ft 425 kts 266°
2026-05-07 20:19 39.76406 35.98978 38211 ft 424 kts 267°
2026-05-07 20:20 39.75797 35.91343 38201 ft 424 kts 267°
2026-05-07 20:20 39.75189 35.83672 38207 ft 423 kts 267°
2026-05-07 20:21 39.74582 35.76058 38211 ft 423 kts 267°
2026-05-07 20:21 39.73965 35.68407 38204 ft 423 kts 267°
2026-05-07 20:22 39.73347 35.60807 38200 ft 423 kts 267°
2026-05-07 20:22 39.72722 35.53207 38194 ft 423 kts 267°
2026-05-07 20:23 39.72090 35.45610 38190 ft 423 kts 267°
2026-05-07 20:23 39.71449 35.37977 38196 ft 421 kts 267°
2026-05-07 20:24 39.70809 35.30411 38190 ft 421 kts 267°
2026-05-07 20:24 39.70161 35.22796 38192 ft 421 kts 267°
2026-05-07 20:25 39.69508 35.15188 38194 ft 421 kts 267°
2026-05-07 20:25 39.68845 35.07538 38192 ft 421 kts 267°
2026-05-07 20:26 39.68188 35.00001 38191 ft 420 kts 267°
2026-05-07 20:26 39.67532 34.92536 38189 ft 419 kts 267°
2026-05-07 20:27 39.66862 34.84961 38190 ft 419 kts 267°
2026-05-07 20:27 39.66193 34.77460 38200 ft 419 kts 267°
2026-05-07 20:28 39.65512 34.69877 38192 ft 419 kts 267°
2026-05-07 20:28 39.64821 34.62241 38191 ft 419 kts 267°
2026-05-07 20:29 39.64136 34.54736 38193 ft 419 kts 267°
2026-05-07 20:29 39.63448 34.47235 38191 ft 418 kts 267°
2026-05-07 20:30 39.62751 34.39707 38196 ft 418 kts 267°
2026-05-07 20:30 39.62051 34.32189 38187 ft 418 kts 267°
2026-05-07 20:31 39.61341 34.24636 38183 ft 418 kts 267°
2026-05-07 20:31 39.60752 34.18406 38190 ft 418 kts 267°
2026-05-07 20:32 39.60036 34.10868 38191 ft 418 kts 267°
2026-05-07 20:32 39.59321 34.03398 38191 ft 417 kts 267°
2026-05-07 20:33 39.58600 33.95920 38190 ft 417 kts 267°
2026-05-07 20:33 39.57875 33.88446 38189 ft 417 kts 267°
2026-05-07 20:34 39.57144 33.80965 38195 ft 417 kts 267°
2026-05-07 20:34 39.56411 33.73515 38195 ft 417 kts 267°
2026-05-07 20:35 39.55669 33.66024 38189 ft 417 kts 267°
2026-05-07 20:35 39.54929 33.58600 38195 ft 416 kts 267°
2026-05-07 20:36 39.54184 33.51165 38192 ft 416 kts 267°
2026-05-07 20:36 39.53436 33.43732 38197 ft 416 kts 267°
2026-05-07 20:37 39.52681 33.36291 38197 ft 416 kts 266°
2026-05-07 20:37 39.51921 33.28842 38196 ft 416 kts 266°
2026-05-07 20:38 39.51154 33.21409 38200 ft 416 kts 266°
2026-05-07 20:38 39.50374 33.13945 38201 ft 416 kts 267°
2026-05-07 20:39 39.49593 33.06525 38208 ft 415 kts 266°
2026-05-07 20:39 39.48807 32.99091 38206 ft 415 kts 266°
2026-05-07 20:40 39.48023 32.91714 38204 ft 415 kts 266°
2026-05-07 20:40 39.47236 32.84289 38203 ft 415 kts 267°
2026-05-07 20:41 39.46447 32.76844 38204 ft 414 kts 267°
2026-05-07 20:41 39.45661 32.69463 38202 ft 414 kts 267°
2026-05-07 20:42 39.44870 32.62093 38202 ft 413 kts 267°
2026-05-07 20:42 39.44075 32.54726 38201 ft 414 kts 266°
2026-05-07 20:43 39.42577 32.47477 38201 ft 421 kts 256°
2026-05-07 20:43 39.40514 32.40377 38194 ft 423 kts 254°
2026-05-07 20:44 39.38328 32.33317 38196 ft 423 kts 253°
2026-05-07 20:44 39.36097 32.26284 38204 ft 422 kts 253°
2026-05-07 20:45 39.33871 32.19266 38203 ft 421 kts 253°
2026-05-07 20:45 39.31645 32.12221 38207 ft 422 kts 253°
2026-05-07 20:46 39.29412 32.05158 38197 ft 421 kts 253°
2026-05-07 20:46 39.27196 31.98166 38203 ft 420 kts 253°
2026-05-07 20:47 39.24964 31.91141 38204 ft 420 kts 253°
2026-05-07 20:47 39.22748 31.84184 38203 ft 420 kts 253°
2026-05-07 20:48 39.20879 31.77097 38201 ft 416 kts 258°
2026-05-07 20:48 39.19233 31.69929 38197 ft 415 kts 259°
2026-05-07 20:49 39.17645 31.62836 38204 ft 414 kts 259°
2026-05-07 20:49 39.16034 31.55665 38206 ft 415 kts 259°
2026-05-07 20:50 39.14405 31.48472 38208 ft 414 kts 258°
2026-05-07 20:50 39.12783 31.41352 38193 ft 413 kts 258°
2026-05-07 20:51 39.11162 31.34258 38209 ft 412 kts 258°
2026-05-07 20:51 39.09514 31.27067 38214 ft 412 kts 258°
2026-05-07 20:52 39.08156 31.21158 38212 ft 411 kts 258°
2026-05-07 20:52 39.06541 31.14153 38214 ft 411 kts 258°
2026-05-07 20:53 39.04901 31.07058 38215 ft 411 kts 258°
2026-05-07 20:53 39.03270 31.00022 38215 ft 410 kts 258°
2026-05-07 20:54 39.01625 30.92954 38220 ft 408 kts 258°
2026-05-07 20:54 39.00005 30.86013 38219 ft 407 kts 258°
2026-05-07 20:55 38.98353 30.78950 38218 ft 406 kts 258°
2026-05-07 20:55 38.96719 30.71986 38222 ft 406 kts 258°
2026-05-07 20:56 38.95094 30.65079 38215 ft 406 kts 258°
2026-05-07 20:56 38.93448 30.58112 38227 ft 404 kts 258°
2026-05-07 20:57 38.91813 30.51210 38230 ft 403 kts 258°
2026-05-07 20:57 38.90178 30.44323 38236 ft 403 kts 258°
2026-05-07 20:58 38.88539 30.37439 38229 ft 403 kts 258°
2026-05-07 20:58 38.86897 30.30571 38239 ft 402 kts 258°
2026-05-07 20:59 38.85256 30.23720 38231 ft 401 kts 258°
2026-05-07 20:59 38.83612 30.16878 38245 ft 401 kts 258°
2026-05-07 21:00 38.81966 30.10048 38236 ft 401 kts 258°
2026-05-07 21:00 38.80315 30.03224 38240 ft 401 kts 258°
2026-05-07 21:01 38.78661 29.96391 38236 ft 401 kts 258°
2026-05-07 21:01 38.77006 29.89578 38237 ft 401 kts 258°
2026-05-07 21:02 38.75342 29.82752 38234 ft 401 kts 258°
2026-05-07 21:02 38.73678 29.75944 38230 ft 401 kts 258°
2026-05-07 21:03 38.72005 29.69122 37916 ft 400 kts 258°
2026-05-07 21:03 38.71176 29.65760 37697 ft 392 kts 258°
2026-05-07 21:03 38.70358 29.62452 37368 ft 387 kts 258°
2026-05-07 21:03 38.69548 29.59166 36846 ft 387 kts 258°
2026-05-07 21:04 38.68739 29.55880 36350 ft 387 kts 258°
2026-05-07 21:04 38.67930 29.52591 35811 ft 389 kts 257°
2026-05-07 21:04 38.67115 29.49279 35267 ft 390 kts 258°
2026-05-07 21:04 38.66542 29.45911 34752 ft 387 kts 264°
2026-05-07 21:05 38.66130 29.42502 34264 ft 387 kts 265°
2026-05-07 21:05 38.65767 29.39100 33841 ft 384 kts 266°
2026-05-07 21:05 38.65432 29.35722 33442 ft 381 kts 266°
2026-05-07 21:05 38.65111 29.32363 33034 ft 379 kts 266°
2026-05-07 21:06 38.64796 29.29031 32628 ft 377 kts 266°
2026-05-07 21:06 38.64481 29.25714 32233 ft 375 kts 266°
2026-05-07 21:06 38.64164 29.22412 31829 ft 373 kts 266°
2026-05-07 21:06 38.63844 29.19124 31443 ft 372 kts 265°
2026-05-07 21:07 38.63523 29.15846 31032 ft 370 kts 265°
2026-05-07 21:07 38.63201 29.12583 30626 ft 369 kts 265°
2026-05-07 21:07 38.62875 29.09297 30213 ft 368 kts 265°
2026-05-07 21:07 38.62552 29.06047 29771 ft 366 kts 265°
2026-05-07 21:08 38.62236 29.02873 29378 ft 364 kts 265°
2026-05-07 21:08 38.61916 28.99669 28957 ft 361 kts 265°
2026-05-07 21:08 38.61597 28.96484 28568 ft 359 kts 265°
2026-05-07 21:08 38.61280 28.93324 28156 ft 357 kts 265°
2026-05-07 21:09 38.60964 28.90184 27752 ft 356 kts 265°
2026-05-07 21:09 38.60648 28.87049 27333 ft 354 kts 265°
2026-05-07 21:09 38.60332 28.83925 26929 ft 353 kts 265°
2026-05-07 21:09 38.60018 28.80822 26524 ft 351 kts 265°
2026-05-07 21:10 38.59703 28.77725 26131 ft 350 kts 265°
2026-05-07 21:10 38.59390 28.74655 25725 ft 349 kts 265°
2026-05-07 21:10 38.59076 28.71585 25326 ft 348 kts 265°
2026-05-07 21:10 38.58762 28.68522 24925 ft 347 kts 265°
2026-05-07 21:11 38.58436 28.65477 24514 ft 346 kts 261°
2026-05-07 21:11 38.57759 28.62521 24117 ft 348 kts 251°
2026-05-07 21:11 38.55772 28.56881 23239 ft 347 kts 247°
2026-05-07 21:12 38.54732 28.54112 22830 ft 345 kts 247°
2026-05-07 21:12 38.53690 28.51359 22423 ft 342 kts 247°
2026-05-07 21:12 38.52643 28.48601 22021 ft 340 kts 247°
2026-05-07 21:12 38.51616 28.45899 21625 ft 338 kts 247°
2026-05-07 21:13 38.50591 28.43207 21220 ft 336 kts 247°
2026-05-07 21:13 38.49572 28.40535 20820 ft 334 kts 247°
2026-05-07 21:13 38.48557 28.37876 20425 ft 332 kts 247°
2026-05-07 21:13 38.47547 28.35231 20018 ft 331 kts 247°
2026-05-07 21:14 38.46525 28.32558 19601 ft 330 kts 248°
2026-05-07 21:14 38.45520 28.29932 19202 ft 329 kts 248°
2026-05-07 21:14 38.44514 28.27303 18819 ft 336 kts 248°
2026-05-07 21:14 38.43437 28.24473 18417 ft 372 kts 248°
2026-05-07 21:15 38.42283 28.21454 17888 ft 382 kts 247°
2026-05-07 21:15 38.41116 28.18425 17426 ft 380 kts 247°
2026-05-07 21:15 38.39951 28.15407 16975 ft 377 kts 247°
2026-05-07 21:15 38.38785 28.12383 16513 ft 374 kts 247°
2026-05-07 21:16 38.37655 28.09452 16056 ft 371 kts 247°
2026-05-07 21:16 38.36517 28.06505 15609 ft 369 kts 247°
2026-05-07 21:16 38.35389 28.03587 15156 ft 367 kts 247°
2026-05-07 21:16 38.34267 28.00683 14715 ft 364 kts 247°
2026-05-07 21:17 38.33512 27.98731 14410 ft 363 kts 247°
2026-05-07 21:17 38.32400 27.95858 14018 ft 357 kts 247°
2026-05-07 21:17 38.31317 27.93068 13783 ft 344 kts 247°
2026-05-07 21:17 38.30277 27.90390 13571 ft 331 kts 247°
2026-05-07 21:18 38.29254 27.87753 13086 ft 326 kts 247°
2026-05-07 21:18 38.28247 27.85155 12523 ft 326 kts 246°
2026-05-07 21:18 38.27242 27.82567 11930 ft 320 kts 246°
2026-05-07 21:18 38.26281 27.80096 11500 ft 308 kts 246°
2026-05-07 21:19 38.25341 27.77682 11115 ft 297 kts 245°
2026-05-07 21:19 38.24437 27.75362 10768 ft 289 kts 245°
2026-05-07 21:19 38.23551 27.73087 10419 ft 282 kts 245°
2026-05-07 21:19 38.22699 27.70904 10220 ft 271 kts 245°
2026-05-07 21:20 38.21860 27.68753 9827 ft 273 kts 245°
2026-05-07 21:20 38.21008 27.66568 9373 ft 277 kts 245°
2026-05-07 21:20 38.20153 27.64382 9038 ft 275 kts 244°
2026-05-07 21:20 38.19306 27.62216 8723 ft 273 kts 244°
2026-05-07 21:21 38.18462 27.60062 8397 ft 271 kts 244°
2026-05-07 21:21 38.17623 27.57920 8082 ft 270 kts 244°
2026-05-07 21:21 38.16789 27.55793 7762 ft 268 kts 244°
2026-05-07 21:21 38.15956 27.53671 7444 ft 267 kts 245°
2026-05-07 21:22 38.15131 27.51570 7142 ft 266 kts 244°
2026-05-07 21:22 38.14317 27.49496 6832 ft 265 kts 244°
2026-05-07 21:22 38.13493 27.47399 6513 ft 264 kts 244°
2026-05-07 21:22 38.12675 27.45322 6192 ft 262 kts 244°
2026-05-07 21:23 38.11876 27.43293 6069 ft 251 kts 244°
2026-05-07 21:23 38.11115 27.41364 5996 ft 237 kts 244°
2026-05-07 21:23 38.10394 27.39536 5806 ft 227 kts 244°
2026-05-07 21:23 38.09687 27.37743 5534 ft 221 kts 244°
2026-05-07 21:24 38.09007 27.36021 5314 ft 217 kts 244°
2026-05-07 21:24 38.08330 27.34303 5099 ft 219 kts 244°
2026-05-07 21:24 38.07740 27.32478 4945 ft 233 kts 253°
2026-05-07 21:24 38.07311 27.30454 4586 ft 235 kts 257°
2026-05-07 21:25 38.06943 27.28459 4344 ft 226 kts 258°
2026-05-07 21:25 38.06598 27.26566 4141 ft 215 kts 258°
2026-05-07 21:25 38.06403 27.24727 3942 ft 208 kts 274°
2026-05-07 21:25 38.06843 27.23009 3903 ft 208 kts 305°
2026-05-07 21:26 38.07966 27.21891 3904 ft 208 kts 336°
2026-05-07 21:26 38.09351 27.21354 3901 ft 209 kts 345°
2026-05-07 21:26 38.10808 27.20935 3793 ft 212 kts 346°
2026-05-07 21:26 38.12200 27.20549 3511 ft 198 kts 346°
2026-05-07 21:27 38.13500 27.20182 3221 ft 184 kts 346°
2026-05-07 21:27 38.14706 27.19834 2963 ft 171 kts 345°
2026-05-07 21:27 38.15837 27.19502 2756 ft 165 kts 345°
2026-05-07 21:27 38.16954 27.19170 2573 ft 164 kts 345°
2026-05-07 21:28 38.18068 27.18837 2358 ft 164 kts 345°
2026-05-07 21:28 38.19210 27.18494 2139 ft 164 kts 345°
2026-05-07 21:28 38.20323 27.18160 1915 ft 165 kts 345°
2026-05-07 21:28 38.21418 27.17832 1666 ft 157 kts 345°
2026-05-07 21:29 38.22437 27.17527 1494 ft 145 kts 345°
2026-05-07 21:29 38.23412 27.17235 1303 ft 142 kts 346°
2026-05-07 21:29 38.24366 27.16947 1096 ft 139 kts 347°
2026-05-07 21:29 38.25320 27.16658 947 ft 139 kts 347°
2026-05-07 21:30 38.26249 27.16376 740 ft 139 kts 346°
2026-05-07 21:30 38.27209 27.16081 589 ft 140 kts 348°
2026-05-07 21:30 38.28164 27.15804 429 ft 138 kts 347°
2026-05-07 21:30 38.29073 27.15529 900 ft 145 kts 347°
2026-05-07 21:31 38.30159 27.15200 1519 ft 175 kts 345°
2026-05-07 21:31 38.31419 27.14778 2315 ft 188 kts 342°
2026-05-07 21:31 38.32646 27.14396 2820 ft 167 kts 345°
2026-05-07 21:31 38.33776 27.14087 3120 ft 179 kts 345°
2026-05-07 21:32 38.35085 27.13743 3634 ft 200 kts 352°
2026-05-07 21:32 38.36461 27.14147 4253 ft 213 kts 33°
2026-05-07 21:32 38.37309 27.15690 4795 ft 219 kts 76°
2026-05-07 21:32 38.37170 27.17580 4973 ft 219 kts 116°
2026-05-07 21:33 38.36090 27.18872 4999 ft 217 kts 159°
2026-05-07 21:33 38.34624 27.19321 5003 ft 218 kts 166°
2026-05-07 21:33 38.33210 27.20014 4998 ft 219 kts 153°
2026-05-07 21:33 38.31920 27.21052 4997 ft 220 kts 146°
2026-05-07 21:34 38.30666 27.22170 4996 ft 220 kts 145°
2026-05-07 21:34 38.29417 27.23293 4996 ft 220 kts 145°
2026-05-07 21:34 38.28167 27.24417 5002 ft 220 kts 145°
2026-05-07 21:34 38.26916 27.25544 5002 ft 220 kts 145°
2026-05-07 21:35 38.25650 27.26678 5001 ft 220 kts 147°
2026-05-07 21:35 38.24310 27.27604 4999 ft 219 kts 159°
2026-05-07 21:35 38.22850 27.28164 4998 ft 220 kts 169°
2026-05-07 21:35 38.21360 27.28603 5003 ft 220 kts 165°
2026-05-07 21:36 38.19877 27.29099 5003 ft 220 kts 166°
2026-05-07 21:36 38.18393 27.29584 5002 ft 220 kts 166°
2026-05-07 21:36 38.16910 27.30064 5002 ft 220 kts 166°
2026-05-07 21:36 38.15405 27.30547 4997 ft 220 kts 166°
2026-05-07 21:37 38.13919 27.31023 4998 ft 220 kts 166°
2026-05-07 21:37 38.12437 27.31497 4999 ft 220 kts 166°
2026-05-07 21:37 38.10950 27.31970 5006 ft 220 kts 167°
2026-05-07 21:37 38.09930 27.32134 4998 ft 219 kts 182°
2026-05-07 21:38 38.08464 27.31684 4995 ft 217 kts 210°
2026-05-07 21:38 38.07208 27.29817 4561 ft 212 kts 250°
2026-05-07 21:38 38.06918 27.28613 4327 ft 211 kts 256°
2026-05-07 21:38 38.06587 27.26790 4064 ft 211 kts 258°
2026-05-07 21:39 38.06370 27.24961 3915 ft 210 kts 271°
2026-05-07 21:39 38.06818 27.23021 3896 ft 209 kts 304°
2026-05-07 21:39 38.07943 27.21894 3899 ft 209 kts 336°
2026-05-07 21:39 38.09340 27.21353 3896 ft 210 kts 345°
2026-05-07 21:40 38.10764 27.20946 3787 ft 210 kts 346°
2026-05-07 21:40 38.12178 27.20555 3520 ft 208 kts 346°
2026-05-07 21:40 38.13574 27.20159 3201 ft 200 kts 346°
2026-05-07 21:40 38.14904 27.19774 2920 ft 187 kts 345°
2026-05-07 21:41 38.16176 27.19399 2719 ft 186 kts 345°
2026-05-07 21:41 38.17434 27.19025 2471 ft 182 kts 345°
2026-05-07 21:41 38.18628 27.18670 2213 ft 170 kts 345°
2026-05-07 21:41 38.19759 27.18331 1998 ft 165 kts 346°
2026-05-07 21:42 38.20875 27.17996 1789 ft 165 kts 346°
2026-05-07 21:42 38.21992 27.17660 1577 ft 165 kts 346°
2026-05-07 21:42 38.23079 27.17334 1395 ft 153 kts 346°
2026-05-07 21:42 38.24091 27.17030 1145 ft 143 kts 346°
2026-05-07 21:43 38.25040 27.16745 943 ft 139 kts 347°
2026-05-07 21:43 38.25992 27.16455 813 ft 142 kts 347°
2026-05-07 21:43 38.26953 27.16164 659 ft 143 kts 348°
2026-05-07 21:43 38.27913 27.15882 456 ft 140 kts 348°
2026-05-07 21:44 38.28793 27.15619 416 ft 109 kts 347°
2026-05-07 21:44 38.29313 27.15460 417 ft 33 kts 346°
2026-05-07 21:44 38.29383 27.15402 417 ft 10 kts 273°
2026-05-07 21:44 38.29371 27.15313 423 ft 11 kts 256°
2026-05-07 21:45 38.29353 27.15215 420 ft 12 kts 257°
2026-05-07 21:45 38.29311 27.15129 418 ft 12 kts 234°
2026-05-07 21:45 38.29294 27.15054 422 ft 6 kts 256°
2026-05-07 21:45 38.29288 27.15025 414 ft 0 kts 256°